Regional Weather Roundup
Issued by NWS

Home | Current Version | Previous Version | Graphics & Text | Print | Product List | Glossary On
Versions: 1 2 3 4 5 6 7 8 9 10 11 12 13 14 15 16 17 18 19 20 21 22 23 24 25 26 27 28 29 30 31 32 33 34 35 36 37 38 39 40 41 42 43 44 45 46 47 48 49 50
000
ASUS45 KBOU 271507
RWRCO

WEATHER ROUNDUP FOR COLORADO
NATIONAL WEATHER SERVICE DENVER/BOULDER CO
800 AM MST SAT DEC 27 2014

NOTE: "FAIR" INDICATES FEW OR NO CLOUDS BELOW 12000 FEET WITH NO
SIGNIFICANT WEATHER AND/OR OBSTRUCTIONS TO VISIBILITY.

COZ001>005-013-030-031-271600-
...NORTHWEST COLORADO...

CITY           SKY/WX    TMP DP  RH WIND       PRES   REMARKS
CRAIG          LGT SNOW   5   1  83 CALM      30.23S FOG
HAYDEN         CLOUDY     9   3  78 CALM      30.20R
MEEKER         MOCLDY     5   1  83 NE3       30.23R FOG
MOUNT WERNER   NOT AVBL
STEAMBOAT SPGS CLOUDY     8   6  89 CALM      30.19R
WALDEN         PTCLDY   -17 -24  70 CALM      30.08R
$$

COZ006>008-011-271600-
...WEST CENTRAL VALLEYS...

CITY           SKY/WX    TMP DP  RH WIND       PRES   REMARKS
GRAND JUNCTION PTCLDY     3   0  87 E5        30.31R WCI  -6
MONTROSE       CLOUDY    16  12  84 W3        30.29R
EAGLE          PTCLDY     3   1  92 CALM      30.24R
RIFLE          CLOUDY     9   3  77 E6        30.29R WCI  -1
DELTA          CLOUDY    20  14  77 NE5       30.30R WCI  13
NUCLA          PTCLDY    10   5  79 E8        30.29R WCI  -1
$$

COZ017>023-064>068-271600-
...SOUTHWEST COLORADO...

CITY           SKY/WX    TMP DP  RH WIND       PRES   REMARKS
DURANGO        PTCLDY     4  -1  80 NE5       30.15R WCI  -5
CORTEZ         CLEAR      4  -1  80 NE7       30.22R WCI  -8
PAGOSA SPRINGS PTCLDY    -1  -6  82 CALM      30.12R
TELLURIDE      PTCLDY     0  -4  85 E3        30.10R
WOLF CREEK PAS   N/A      0  -4  85 MISG      29.95R
$$

COZ009-010-012-014-032>034-037-058>063-271600-
...CENTRAL COLORADO...

CITY           SKY/WX    TMP DP  RH WIND       PRES   REMARKS
ASPEN          PTCLDY     3  -4  72 SW8       30.13R WCI -10
BUENA VISTA    NOT AVBL
COPPER MTN     CLOUDY     0  -8  71 W15       29.91S WCI -20
BERTHOUD PASS  CLOUDY    -9 -15  77 MISG      29.86R
COTTONWOOD PAS PTCLDY     9   0  66 S5        29.98S WCI   0
GUNNISON       CLOUDY     1  -2  85 CALM      30.17R
KREMMLING      CLOUDY     9   1  72 S3        30.17R
LEADVILLE      PTCLDY   -10 -15  78 NE10      30.00R WCI -29
SALIDA         PTCLDY     1  -4  78 W3        30.20R
SUNLIGHT       CLOUDY   N/A N/A N/A CALM      30.02S
WILKERSON PASS PTCLDY     0  -6  78 NW6       29.94R WCI -12
$$

COZ069>075-271600-
...SAN LUIS VALLEY/SANGRE DE CRISTO MOUNTAINS...

CITY           SKY/WX    TMP DP  RH WIND       PRES   REMARKS
ALAMOSA        CLOUDY    -2  -7  79 CALM      30.14R
LA VETA PASS   NOT AVBL
SAGUACHE       MOCLDY     5  -4  66 NW15      30.12R WCI -13
$$

COZ035-036-038>040-271600-
...NORTHERN COLORADO FRONT RANGE...

CITY           SKY/WX    TMP DP  RH WIND       PRES   REMARKS
DENVER INTL AP PTCLDY    11   4  73 SW15      30.14R WCI  -5
DMNS CITY PARK   N/A     11   2  69 S5G14     30.15S WCI   3
AURORA         CLEAR      8   4  82 S9        30.14R WCI  -5
FRONT RANGE AP PTCLDY    14   7  73 SW9       30.14S WCI   2
ERIE MUNI ARPT   N/A     -4  -7  85 CALM      30.15S
BOULDER MUN AP CLEAR     10   5  79 CALM      30.14R
CENTENNIAL     PTCLDY     7   2  80 SW9       30.13R WCI  -7
BROOMFIELD     CLEAR     12   3  67 S3        30.12S
FORT COLLINS   PTCLDY     3  -2  78 S7        30.15S WCI  -9
LONGMONT       PTCLDY    -1  -5  83 CALM      30.17F
$$

COZ041-046-047-076>085-087-088-271600-
...PIKES PEAK/PALMER DIVIDE AND SOUTHERN FOOTHILLS...

CITY           SKY/WX    TMP DP  RH WIND       PRES   REMARKS
COLO. SPRINGS  PTCLDY     9   2  73 CALM      30.15R
A. F. ACADEMY  PTCLDY     4  -3  75 N8        30.11R WCI -10
ELLICOTT       NOT AVBL
FALCON         PTCLDY    13   3  66 W7        30.10R WCI   2
FORT CARSON    PTCLDY     6   1  81 CALM      30.15R
LIMON          CLEAR      5   0  79 NW9       30.16R WCI  -9
MONUMENT HILL  PTCLDY     5   0  78 SW7       30.07R WCI  -7
TRINIDAD       MOCLDY     8   4  83 SW10      30.17R WCI  -6
$$

COZ042>045-048>051-090-091-271600-
...NORTHEAST COLORADO...

CITY           SKY/WX    TMP DP  RH WIND       PRES   REMARKS
GREELEY ARPT   MOCLDY   -11 -17  77 CALM      30.16S
AKRON          MOCLDY     5   3  91 W18       30.16R WCI -15
BURLINGTON     PTCLDY     8   3  80 W10       30.21R WCI  -6
WRAY           MOCLDY     3   0  85 SW3       30.22R
STERLING       MOCLDY     0  -4  85 S6        30.19R WCI -12
HOLYOKE        MOCLDY     5   0  78 W9        30.19R WCI  -9
FORT MORGAN    MOCLDY     3   0  87 W13       30.18R WCI -14
$$

COZ086-089-092>099-271600-
...SOUTHEAST COLORADO...

CITY           SKY/WX    TMP DP  RH WIND       PRES   REMARKS
PUEBLO         PTCLDY     8   4  83 NW3       30.22R
LA JUNTA       PTCLDY     7   3  84 W9        30.24S WCI  -7
LAMAR          CLEAR     10   7  87 SW8       30.25S WCI  -2
SPRINGFIELD      N/A     11   8  88 NW9       30.22R WCI  -2
$$


USA.gov is the U.S. government's official web portal to all federal, state and local government web resources and services.